TimeEST,TemperatureF,Dew PointF,Humidity,Sea Level PressureIn,VisibilityMPH,Wind Direction,Wind SpeedMPH,Gust SpeedMPH,PrecipitationIn,Events,Conditions,WindDirDegrees,DateUTC
12:53 AM,42.1,27.0,55,30.06,10.0,NE,12.7,19.6,N/A,,Clear,50,2012-11-07 05:53:00
1:53 AM,41.0,30.9,67,30.05,10.0,NNE,17.3,21.9,N/A,,Mostly Cloudy,30,2012-11-07 06:53:00
2:53 AM,41.0,32.0,70,29.99,10.0,NNE,17.3,26.5,N/A,,Mostly Cloudy,30,2012-11-07 07:53:00
3:53 AM,42.1,30.9,65,29.98,10.0,NE,19.6,32.2,N/A,,Overcast,40,2012-11-07 08:53:00
4:53 AM,42.1,30.9,65,29.94,10.0,NNE,23.0,32.2,N/A,,Overcast,30,2012-11-07 09:53:00
5:15 AM,42.8,30.2,61,29.94,10.0,NNE,23.0,32.2,N/A,,Overcast,30,2012-11-07 10:15:00
5:53 AM,42.1,30.9,65,29.94,10.0,NNE,19.6,31.1,N/A,,Overcast,30,2012-11-07 10:53:00
6:25 AM,42.8,30.2,61,29.92,10.0,NNE,21.9,27.6,N/A,,Overcast,20,2012-11-07 11:25:00
6:53 AM,42.1,30.9,65,29.92,10.0,NNE,21.9,29.9,N/A,,Overcast,30,2012-11-07 11:53:00
7:53 AM,42.1,30.9,65,29.92,10.0,NNE,19.6,29.9,N/A,,Overcast,20,2012-11-07 12:53:00
8:53 AM,41.0,32.0,70,29.90,10.0,NNE,20.7,31.1,0.00,Rain,Light Rain,30,2012-11-07 13:53:00
9:46 AM,37.4,33.8,87,29.86,2.0,NNE,21.9,34.5,0.16,Rain,Heavy Rain,20,2012-11-07 14:46:00
9:53 AM,37.9,34.0,86,29.85,2.0,NNE,24.2,31.1,0.19,Rain,Heavy Rain,20,2012-11-07 14:53:00
10:53 AM,39.9,36.0,86,29.82,2.0,NNE,23.0,34.5,0.11,Rain,Rain,20,2012-11-07 15:53:00
11:53 AM,41.0,35.1,79,29.78,2.0,NNE,28.8,41.4,0.02,,Overcast,20,2012-11-07 16:53:00
12:33 PM,39.2,35.6,87,29.75,10.0,NNE,27.6,36.8,0.01,Rain,Light Rain,20,2012-11-07 17:33:00
12:53 PM,39.9,35.1,83,29.74,10.0,NNE,28.8,35.7,0.01,Rain,Light Rain,20,2012-11-07 17:53:00
1:45 PM,39.2,35.6,87,29.72,10.0,NNE,26.5,39.1,0.00,Rain,Light Rain,20,2012-11-07 18:45:00
1:53 PM,39.9,35.1,83,29.75,9.0,NNE,26.5,39.1,0.00,Rain,Light Rain,20,2012-11-07 18:53:00
2:53 PM,37.9,34.0,86,29.73,2.5,NNE,24.2,41.4,0.07,Rain,Rain,20,2012-11-07 19:53:00
3:25 PM,35.6,33.8,93,29.72,3.0,North,24.2,35.7,0.09,Rain,Rain,10,2012-11-07 20:25:00
3:53 PM,36.0,33.1,89,29.70,6.0,North,21.9,38.0,0.12,Snow,Light Snow,10,2012-11-07 20:53:00
4:38 PM,35.6,33.8,93,29.68,6.0,North,23.0,40.3,0.05,Snow,Light Snow,10,2012-11-07 21:38:00
4:53 PM,36.0,33.1,89,29.70,8.0,North,29.9,43.7,0.05,Snow,Light Snow,10,2012-11-07 21:53:00
5:53 PM,36.0,32.0,86,29.71,4.0,North,26.5,41.4,0.02,Snow,Light Snow,10,2012-11-07 22:53:00
6:53 PM,36.0,32.0,86,29.69,5.0,North,29.9,38.0,0.01,Snow,Light Snow,10,2012-11-07 23:53:00
7:13 PM,35.6,30.2,81,29.69,6.0,North,25.3,42.6,0.01,Snow,Light Snow,10,2012-11-08 00:13:00
7:21 PM,35.6,30.2,81,29.68,7.0,North,27.6,38.0,0.01,Snow,Light Snow,10,2012-11-08 00:21:00
7:44 PM,35.6,30.2,81,29.68,10.0,North,28.8,44.9,0.01,,Overcast,10,2012-11-08 00:44:00
7:53 PM,36.0,30.9,82,29.69,10.0,NNE,27.6,41.4,0.01,,Overcast,20,2012-11-08 00:53:00
8:53 PM,36.0,30.9,82,29.67,10.0,North,26.5,41.4,0.00,,Overcast,10,2012-11-08 01:53:00
9:53 PM,36.0,28.9,76,29.66,10.0,North,29.9,46.0,0.00,Rain,Light Rain,360,2012-11-08 02:53:00
10:53 PM,35.1,30.0,82,29.66,8.0,North,24.2,40.3,0.02,Rain,Light Rain,360,2012-11-08 03:53:00
11:38 PM,35.6,30.2,81,29.67,5.0,North,23.0,35.7,0.03,Rain,Rain,360,2012-11-08 04:38:00
11:53 PM,35.1,30.0,82,29.67,5.0,North,17.3,35.7,0.05,Rain,Rain,360,2012-11-08 04:53:00